FLOCK 3K-8 (43901 NORAD) Tracking and Keplerian Element Data

This shows tracking and keplerian element data for the satellite.

Feedback or suggestion? Click here.




ElementValue
Catalog43901
NameFLOCK 3K-8
Epoch Orbit316
Epoch Day16.83586855
Epoch Year2019
RAAN286.173
Inclination97.2994
Eccentricity0.0023019
Argument of Perigee167.609
Mean Anonmoly192.5718
Mean Motion15.23621272
Decay Rate5.26E-06
L11 43901U 18111AB 19016.83586855 .00000526 00000-0 24722-4 0 9998
L22 43901 97.2994 286.1730 0023019 167.6090 192.5718 15.23621272 3164

Live tracking and technical data element details for FLOCK 3K-8 (NORAD 43901). FLOCK 3K-8 can be tracked NOW for your location showing map with azimuth and elevation plus other details from your city location.

Track the satellite on the map from your city or location and see movement details for azimuth, elevation, latitude, longitude, range, height, and movement on the map or in text.







IsCatalogInMostPopularTable: catalog: 43901, numindb: 18
Update: records affected: 1



GetName: 43901 FLOCK 3K-8

Hit Count: updated at: Thu, 17 Jan 2019 16:05:32 GMT